Kill Devil Hills, NC

9:16 PM EDT on April 25, 2018 (GMT -0400)
First Flight

Weather History for KFFA - March, 2014

Change the Weather History Date:

Sunday, March 9, 2014

  Actual Average (KMQI) Record (KMQI)
Temperature  
Mean Temperature 44 °F -  
Max Temperature 50 °F 53 °F 80 °F (2009)
Min Temperature 38 °F 41 °F 24 °F (1986)
Degree Days  
Heating Degree Days 21    
Moisture  
Dew Point 40 °F    
Average Humidity 76    
Maximum Humidity 91    
Minimum Humidity 63    
Precipitation  
Precipitation 0.00 in - - ()
Sea Level Pressure  
Sea Level Pressure 30.01 in    
Wind  
Wind Speed 7 mph (NNW)    
Max Wind Speed 12 mph    
Max Gust Speed 17 mph    
Visibility 9 miles    
Events Rain    
Averages and records for this station are not official NWS values.
T = Trace of Precipitation, MM = Missing Value Source: NWS Daily Summary

Daily Weather History Graph

Daily Weather History Graph

Search for Another Location

Airport or City:

Astronomy

Mar. 09, 2014 Rise Set
Actual Time 7:21 AM EDT 7:04 PM EDT
Civil Twilight 6:56 AM EDT 7:30 PM EDT
Nautical Twilight 6:26 AM EDT 8:00 PM EDT
Astronomical Twilight 5:56 AM EDT 8:30 PM EDT
Moon 1:03 PM EDT (3/9) 3:37 AM EDT (3/9)
Length of Visible Light 12h 34m
Length of Day
11h 42m
First Quarter, 61% of the Moon is Illuminated
Mar 9
First Quarter
Mar 16
Full
Mar 23
Last Quarter
Mar 30
New
Apr 7
First Quarter

Hourly Weather History & Observations

Time (EDT) Temp. Windchill Dew Point Humidity Pressure Visibility Wind Dir Wind Speed Gust Speed Precip Events Conditions
12:15 AM 47.3 °F - 42.1 °F 82% 29.95 in 10.0 mi SW 6.9 mph - N/A   Clear
12:35 AM 47.7 °F - 42.3 °F 82% 29.95 in 10.0 mi SW 6.9 mph - N/A   Clear
12:55 AM 48.4 °F - 42.4 °F 80% 29.95 in 10.0 mi SW 6.9 mph - N/A   Clear
1:15 AM 49.3 °F - 42.8 °F 78% 29.94 in 10.0 mi SW 9.2 mph - N/A   Clear
1:35 AM 49.8 °F - 42.8 °F 77% 29.94 in 10.0 mi WSW 9.2 mph 17.3 mph N/A   Clear
1:55 AM 50.2 °F - 42.8 °F 76% 29.94 in 10.0 mi SW 9.2 mph - N/A   Clear
3:15 AM 50.5 °F - 42.8 °F 75% 29.94 in 10.0 mi WSW 9.2 mph 16.1 mph N/A   Clear
3:35 AM 50.7 °F - 42.8 °F 74% 29.93 in 10.0 mi WSW 9.2 mph - N/A   Clear
3:55 AM 50.5 °F - 42.8 °F 75% 29.92 in 10.0 mi WSW 9.2 mph - N/A   Clear
4:15 AM 50.2 °F - 42.8 °F 76% 29.92 in 10.0 mi WSW 10.4 mph - N/A   Clear
4:35 AM 50.2 °F - 42.8 °F 76% 29.92 in 10.0 mi WSW 10.4 mph 16.1 mph N/A   Clear
4:55 AM 50.0 °F - 42.8 °F 76% 29.92 in 10.0 mi WSW 9.2 mph - N/A   Clear
5:15 AM 50.0 °F - 42.8 °F 76% 29.92 in 10.0 mi WSW 9.2 mph - N/A   Clear
5:35 AM 50.2 °F - 43.0 °F 76% 29.93 in 10.0 mi WSW 9.2 mph 17.3 mph N/A   Clear
5:55 AM 49.8 °F - 43.0 °F 77% 29.93 in 10.0 mi WSW 5.8 mph - N/A   Clear
6:15 AM 49.5 °F - 43.0 °F 78% 29.93 in 10.0 mi WSW 4.6 mph - N/A   Clear
6:35 AM 48.9 °F - 42.8 °F 79% 29.94 in 10.0 mi WSW 5.8 mph - N/A   Clear
6:55 AM 48.2 °F - 42.8 °F 82% 29.94 in 10.0 mi West 5.8 mph - N/A   Clear
7:10 AM 47.8 °F - 42.8 °F 83% 29.94 in 10.0 mi West 5.8 mph - N/A   Clear
7:35 AM 47.7 °F - 43.0 °F 84% 29.94 in 10.0 mi West 5.8 mph - N/A   Clear
7:55 AM 47.5 °F - 43.0 °F 84% 29.96 in 10.0 mi West 4.6 mph - N/A   Clear
8:15 AM 47.5 °F - 43.2 °F 85% 29.97 in 10.0 mi West 6.9 mph - N/A   Scattered Clouds
8:35 AM 48.2 °F - 43.2 °F 83% 29.98 in 10.0 mi West 6.9 mph - N/A   Scattered Clouds
8:55 AM 48.6 °F - 43.3 °F 82% 29.99 in 10.0 mi West 5.8 mph - N/A   Scattered Clouds
9:15 AM 48.6 °F - 43.2 °F 82% 30.00 in 10.0 mi West 4.6 mph - N/A   Scattered Clouds
9:35 AM 49.3 °F - 43.3 °F 80% 30.01 in 10.0 mi West 6.9 mph - N/A   Overcast
9:55 AM 48.0 °F - 43.2 °F 83% 30.02 in 10.0 mi WNW 4.6 mph - N/A   Overcast
10:15 AM 48.6 °F - 43.5 °F 83% 30.02 in 10.0 mi NW 4.6 mph - N/A Rain Light Rain
10:35 AM 50.7 °F - 42.1 °F 72% 30.03 in 10.0 mi North 5.8 mph - N/A   Mostly Cloudy
10:55 AM 50.4 °F - 41.0 °F 70% 30.03 in 10.0 mi North 5.8 mph - N/A   Scattered Clouds
11:15 AM 50.9 °F - 40.1 °F 67% 30.04 in 10.0 mi North 5.8 mph - N/A   Clear
11:35 AM 50.7 °F - 39.4 °F 65% 30.04 in 10.0 mi North 6.9 mph - N/A   Clear
11:50 AM 50.9 °F - 39.4 °F 65% 30.04 in 10.0 mi NNE 9.2 mph - N/A   Clear
12:15 PM 50.0 °F - 38.8 °F 66% 30.04 in 10.0 mi North 9.2 mph - N/A   Clear
12:35 PM 49.8 °F - 38.8 °F 66% 30.04 in 10.0 mi NNE 8.1 mph - N/A   Clear
12:55 PM 50.4 °F - 38.7 °F 64% 30.04 in 7.0 mi NNE 9.2 mph - N/A   Clear
1:15 PM 50.7 °F - 38.5 °F 63% 30.04 in 10.0 mi NNE 5.8 mph - N/A   Clear
1:35 PM 50.4 °F - 38.1 °F 63% 30.04 in 10.0 mi NNE 9.2 mph - N/A   Clear
1:55 PM 50.2 °F - 37.9 °F 63% 30.04 in 10.0 mi NNE 9.2 mph - N/A   Clear
2:15 PM 49.8 °F - 37.9 °F 64% 30.04 in 10.0 mi NNE 10.4 mph - N/A   Clear
2:35 PM 49.8 °F - 37.9 °F 64% 30.04 in 10.0 mi NE 8.1 mph 17.3 mph N/A   Clear
2:55 PM 49.3 °F - 37.6 °F 64% 30.04 in 7.0 mi NNE 8.1 mph - N/A   Clear
3:15 PM 48.9 °F - 37.8 °F 65% 30.04 in 7.0 mi North 8.1 mph - N/A   Clear
3:35 PM 48.7 °F - 37.8 °F 66% 30.04 in 7.0 mi NE 5.8 mph - N/A   Clear
3:55 PM 48.0 °F - 37.8 °F 68% 30.03 in 7.0 mi NNE 11.5 mph 17.3 mph N/A   Clear
4:15 PM 47.7 °F - 37.6 °F 68% 30.04 in 7.0 mi NE 5.8 mph - N/A   Clear
4:30 PM 47.5 °F - 37.4 °F 68% 30.03 in 10.0 mi NE 6.9 mph - N/A   Clear
4:55 PM 46.6 °F - 37.2 °F 70% 30.03 in 7.0 mi ENE 4.6 mph - N/A   Clear
5:15 PM 46.2 °F 42.7 °F 37.4 °F 71% 30.03 in 7.0 mi NE 6.9 mph - N/A   Clear
5:35 PM 45.9 °F 43.6 °F 37.8 °F 73% 30.03 in 7.0 mi ENE 4.6 mph - N/A   Clear
5:55 PM 45.7 °F 43.4 °F 38.3 °F 75% 30.03 in 7.0 mi East 4.6 mph - N/A   Clear
6:15 PM 45.1 °F 42.0 °F 38.5 °F 77% 30.02 in 7.0 mi East 5.8 mph - N/A   Clear
6:35 PM 44.2 °F 41.8 °F 38.5 °F 80% 30.02 in 5.0 mi East 4.6 mph - N/A   Haze
6:55 PM 43.3 °F 40.7 °F 38.5 °F 83% 30.02 in 5.0 mi East 4.6 mph - N/A   Haze
7:15 PM 42.4 °F 39.6 °F 38.3 °F 85% 30.03 in 5.0 mi East 4.6 mph - N/A   Clear
7:35 PM 41.9 °F 39.0 °F 38.1 °F 86% 30.03 in 5.0 mi East 4.6 mph - N/A   Clear
7:55 PM 41.9 °F 40.0 °F 37.8 °F 85% 30.04 in 7.0 mi ESE 3.5 mph - N/A   Clear
8:15 PM 41.9 °F 40.0 °F 37.4 °F 84% 30.04 in 5.0 mi East 3.5 mph - N/A   Haze
8:35 PM 41.7 °F 39.8 °F 37.4 °F 85% 30.04 in 5.0 mi SE 3.5 mph - N/A   Haze
8:55 PM 41.5 °F 39.6 °F 37.4 °F 85% 30.04 in 7.0 mi East 3.5 mph - N/A   Clear
9:15 PM 41.9 °F - 36.9 °F 82% 30.06 in 7.0 mi Calm Calm - N/A   Clear
9:35 PM 41.0 °F - 36.5 °F 84% 30.06 in 7.0 mi Calm Calm - N/A   Clear
9:55 PM 40.1 °F - 36.5 °F 87% 30.07 in 7.0 mi Calm Calm - N/A   Clear
10:15 PM 38.8 °F 36.5 °F 36.3 °F 91% 30.06 in 5.0 mi South 3.5 mph - N/A   Clear
10:35 PM 40.1 °F - 36.7 °F 88% 30.06 in 7.0 mi Calm Calm - N/A   Clear
10:55 PM 40.8 °F - 35.1 °F 80% 30.06 in 10.0 mi Calm Calm - N/A   Clear
11:15 PM 40.5 °F - 33.6 °F 77% 30.06 in 10.0 mi Calm Calm - N/A   Clear
11:35 PM 41.2 °F - 34.3 °F 77% 30.04 in 10.0 mi Calm Calm - N/A   Clear
11:55 PM 41.9 °F - 34.3 °F 75% 30.04 in 10.0 mi Calm Calm - N/A   Clear
12:15 AM 41.4 °F - 35.4 °F 79% 30.04 in 10.0 mi Calm Calm - N/A   Clear
12:35 AM 40.5 °F - 36.5 °F 86% 30.03 in 10.0 mi Calm Calm - N/A   Clear
12:55 AM 39.9 °F - 36.7 °F 88% 30.02 in 10.0 mi Calm Calm - N/A   Clear